Lid_Strength_Index
3 4 3 3 3 3 4 3 3 3 3 3 2 3 3 2 2 2 2 2 2 2 2 2 2 2 2 1 1 2 6 6
5 5 6 6 6 4 4 4 4 3 3 3 3 3 2 3 3 2 2 2 2 2 2 2 3 3 3 2 2 3 7 6
7 8 8 8 8 5 4 3 3 3 4 3 5 7 6 6 3 2 3 3 3 3 3 3 3 4 3 3 4 7 7 7
7 8 9 8 6 7 7 6 8 8 7 7 7 7 5 5 4 3 4 4 4 4 4 4 6 8 8 5 7 7 7 7
7 8 8 8 8 8 8 9 9 8 8 7 8 8 8 8 9 9 9 6 8 8 8 8 8 8 8 8 7 7 8 7
6 7 7 8 7 7 9 9 8 9 9 8 9 9 9 9 9 9 9 9 9 9 9 9 9 8 8 8 8 8 8 7
6 7 7 6 8 8 9 8 9 9 9 8 9 9 9 9 10 10 10 9 10 10 10 10 9 9 9 8 9 9 8 8
7 8 8 7 9 8 8 9 9 9 9 9 9 10 10 10 10 10 10 10 10 10 10 10 10 10 9 9 9 9 9 8
7 7 7 8 9 8 8 8 9 9 10 10 10 10 10 10 11 11 11 11 10 10 11 10 10 10 10 10 9 9 8 7
6 5 7 8 9 9 8 8 9 9 10 10 10 10 10 11 11 12 11 10 10 11 11 11 11 11 12 11 10 9 8 9
6 7 8 8 9 9 9 9 9 10 10 11 11 10 10 11 11 11 10 10 11 11 12 12 12 12 11 11 10 10 9 9
6 7 8 8 9 9 9 10 10 11 11 11 11 11 10 11 11 11 11 12 12 12 12 12 12 13 11 11 10 10 9 10
7 7 8 9 9 10 10 11 11 12 11 11 11 11 11 11 12 12 11 12 12 12 13 13 13 12 13 12 11 10 10 10
7 7 8 9 9 10 10 11 12 11 11 12 11 11 11 11 12 12 12 12 12 13 13 14 13 12 14 14 14 12 11 10
7 8 8 8 8 10 11 11 11 12 12 13 13 12 12 12 12 12 12 12 13 13 13 13 14 13 12 14 15 15 14 11
7 7 8 8 8 10 11 11 12 13 13 13 13 12 12 12 12 13 13 13 13 12 12 13 13 14 13 11 12 13 15 16
8 8 8 9 9 10 11 12 12 12 13 13 13 13 12 12 13 14 13 13 13 13 13 13 13 13 13 14 13 13 14 15
8 8 9 10 10 10 11 12 12 13 13 13 13 13 13 13 13 14 13 13 13 13 12 13 13 13 13 13 13 14 14 14
9 9 11 11 11 11 12 12 12 13 13 13 13 14 14 14 14 14 14 13 12 12 12 13 13 14 14 13 12 12 12 13
10 10 11 11 11 12 12 12 12 12 12 12 13 14 14 14 13 13 13 12 13 13 13 13 13 13 14 13 13 12 12 12